GW4714 Weather Reports


time (UTC)temp
F
wind
direction
speed
knots
gust
knots
rain 1hr
in
rain 24hr
in
rain mn
in
humidity
%
barometer
mb
20260510233108 81 202 0.0 6.1 0.00 0.00 0.00 35 1015.6
20260510231609 81 0 0.9 7.8 0.00 0.00 0.00 34 1015.5
20260510230110 82 0 0.0 8.7 0.00 0.00 0.00 33 1015.3
20260510224608 83 159 0.0 7.8 0.00 0.00 0.00 31 1015.3
20260510223139 83 153 0.9 4.3 0.00 0.00 0.00 31 1015.3
20260510221557 84 0 0.0 2.6 0.00 0.00 0.00 30 1015.2
20260510220108 84 0 0.0 4.3 0.00 0.00 0.00 30 1015.1
20260510214556 84 0 0.9 7.8 0.00 0.00 0.00 28 1015.2
20260510213118 84 0 0.9 7.0 0.00 0.00 0.00 29 1015.1
20260510211601 84 0 0.0 7.0 0.00 0.00 0.00 29 1015.1
20260510210057 84 0 0.9 7.0 0.00 0.00 0.00 27 1015.1
20260510204601 83 160 0.9 5.2 0.00 0.00 0.00 27 1015.3
20260510203055 84 215 0.9 7.0 0.00 0.00 0.00 26 1015.3
20260510201557 83 0 1.7 6.1 0.00 0.00 0.00 27 1015.3
20260510200100 84 0 0.0 3.5 0.00 0.00 0.00 26 1015.5
20260510194558 83 0 0.0 4.3 0.00 0.00 0.00 27 1015.6
20260510193059 83 0 0.0 3.5 0.00 0.00 0.00 28 1015.6
20260510191557 81 0 0.9 7.8 0.00 0.00 0.00 29 1015.9
20260510190059 83 0 0.0 2.6 0.00 0.00 0.00 28 1016.0
20260510184559 81 0 0.0 2.6 0.00 0.00 0.00 31 1015.9
20260510183102 81 0 0.9 10.4 0.00 0.00 0.00 30 1016.1
20260510181629 80 0 0.9 6.1 0.00 0.00 0.00 30 1016.0
20260510180107 81 296 0.9 5.2 0.00 0.00 0.00 28 1016.3
20260510174600 82 0 0.0 4.3 0.00 0.00 0.00 28 1016.4
20260510173058 80 0 0.0 7.0 0.00 0.00 0.00 27 1016.5
20260510171556 81 149 1.7 5.2 0.00 0.00 0.00 29 1016.7
20260510170055 79 153 0.0 4.3 0.00 0.00 0.00 31 1016.8
20260510164556 79 0 0.0 5.2 0.00 0.00 0.00 31 1016.8
20260510163101 79 0 0.0 0.9 0.00 0.00 0.00 32 1016.7
20260510161554 78 0 0.0 5.2 0.00 0.00 0.00 30 1017.0
20260510154602 76 0 0.0 2.6 0.00 0.00 0.00 36 1017.0
20260510153108 76 0 0.0 3.5 0.00 0.00 0.00 36 1017.0
20260510151557 76 0 0.0 2.6 0.00 0.00 0.00 37 1017.1
20260510150056 74 263 0.0 2.6 0.00 0.00 0.00 39 1017.3
20260510144556 73 81 0.0 0.9 0.00 0.00 0.00 43 1017.2
20260510143112 72 0 0.0 2.6 0.00 0.00 0.00 45 1017.3
20260510141556 71 0 0.0 1.7 0.00 0.00 0.00 48 1017.3
20260510140100 70 0 0.0 0.9 0.00 0.00 0.00 51 1017.2
20260510134605 70 0 0.0 0.0 0.00 0.00 0.00 59 1017.3
20260510133057 68 0 0.0 0.0 0.00 0.00 0.00 62 1017.1
20260510131554 67 0 0.0 0.0 0.00 0.00 0.00 64 1017.2
20260510130057 66 0 0.0 0.0 0.00 0.00 0.00 66 1017.0
20260510124557 65 0 0.0 0.0 0.00 0.00 0.00 68 1016.7
20260510123056 64 0 0.0 0.0 0.00 0.00 0.00 70 1016.7
20260510121558 62 0 0.0 0.0 0.00 0.00 0.00 74 1016.5
20260510114558 60 0 0.0 1.7 0.00 0.00 0.00 78 1016.2
20260510113058 59 0 0.0 1.7 0.00 0.00 0.00 79 1015.7
20260510111555 58 0 0.0 0.0 0.00 0.00 0.00 81 1015.5
20260510110056 56 0 0.0 0.0 0.00 0.00 0.00 86 1015.3
20260510104556 54 0 0.0 0.0 0.00 0.00 0.00 92 1014.9
20260510103056 53 0 0.0 1.7 0.00 0.00 0.00 92 1014.7
20260510101600 53 0 0.0 0.0 0.00 0.00 0.00 92 1014.4
20260510100130 54 0 0.0 0.0 0.00 0.00 0.00 91 1014.1
20260510094558 56 0 0.0 0.0 0.00 0.00 0.00 87 1014.0
20260510093103 57 0 0.0 0.0 0.00 0.00 0.00 86 1013.9
20260510091559 57 0 0.0 0.0 0.00 0.00 0.00 87 1013.9
20260510090056 56 0 0.0 0.0 0.00 0.00 0.00 92 1013.8
20260510084556 57 0 0.0 0.0 0.00 0.00 0.00 91 1013.8
20260510083102 57 0 0.0 0.0 0.00 0.00 0.00 92 1013.6
20260510081557 57 0 0.0 0.0 0.00 0.00 0.00 93 1013.5
20260510074557 58 0 0.0 0.0 0.00 0.00 0.00 92 1013.1
20260510073056 58 0 0.0 0.0 0.00 0.00 0.00 93 1013.0
20260510071600 58 0 0.0 0.0 0.00 0.00 0.00 92 1012.9
20260510070101 58 0 0.0 0.0 0.00 0.00 0.00 92 1012.8
20260510064558 59 0 0.0 0.0 0.00 0.00 0.00 92 1012.9
20260510063055 60 0 0.0 0.0 0.00 0.00 0.00 91 1012.9
20260510061558 60 0 0.0 0.0 0.00 0.00 0.00 91 1012.9
20260510060055 60 0 0.0 0.0 0.00 0.00 0.00 91 1013.2
20260510054556 61 0 0.0 0.0 0.00 0.00 0.00 90 1013.3
20260510053057 62 0 0.0 0.0 0.00 0.00 0.00 88 1013.2
20260510051558 62 0 0.0 0.0 0.00 0.00 0.00 89 1013.2
20260510050055 61 0 0.0 0.0 0.00 0.00 0.00 91 1013.4
20260510044559 61 0 0.0 0.0 0.00 0.00 0.00 90 1013.5
20260510043057 61 0 0.0 0.0 0.00 0.00 0.00 90 1013.5
20260510041558 62 0 0.0 0.0 0.00 0.00 0.00 89 1013.5
20260510040100 63 0 0.0 0.0 0.00 0.00 0.00 87 1013.5
20260510034604 63 0 0.0 0.0 0.00 0.00 0.00 86 1013.5
20260510033114 63 0 0.0 0.0 0.00 0.00 0.00 86 1013.5
20260510031559 64 0 0.0 0.0 0.00 0.00 0.00 86 1013.6
20260510030057 64 0 0.0 0.0 0.00 0.00 0.00 85 1013.5
20260510024602 64 0 0.0 0.0 0.00 0.00 0.00 85 1013.5
20260510023058 65 0 0.0 0.0 0.00 0.00 0.00 83 1013.4
20260510021603 65 0 0.0 0.0 0.00 0.00 0.00 82 1013.3
20260510020057 66 0 0.0 0.0 0.00 0.00 0.00 81 1013.0
20260510014557 66 200 0.0 0.0 0.00 0.00 0.00 80 1012.8
20260510013056 67 260 0.0 2.6 0.00 0.00 0.00 80 1012.7
20260510011558 67 0 0.0 0.0 0.00 0.00 0.00 79 1012.5
20260510010055 68 0 0.0 0.0 0.00 0.00 0.00 78 1012.3
20260510004559 68 0 0.0 0.9 0.00 0.00 0.00 77 1012.0
20260510003111 69 0 0.0 0.0 0.00 0.00 0.00 76 1011.7
20260510001601 69 0 0.0 0.0 0.00 0.00 0.00 75 1011.5
20260510000105 70 0 0.0 0.0 0.00 0.00 0.00 74 1011.4
20260509234612 70 0 0.0 1.7 0.00 0.00 0.00 73 1011.1